Flag for United Kingdom Weather past 2 weeks in Bangor, Wales, United Kingdom

Now
53 °F

Cool.


Feels Like: 51 °F
Forecast: 53 / 59 °F
Wind: 8 mph from West

Location: Capel Curig

Current Time: Sep 2, 2015 at 12:03:10 PM

Latest Report: Sep 2, 2015 at 11:00 AM


Visibility: 18 mi

Pressure: 30.11 "Hg

Humidity: 83%

Dew point: 48 °F

Location of BangorLocation

Historic Weather in Bangor — Graph

°F

Bangor temperature yesterday

Maximum temperature yesterday: 58 °F (at 2:00 PM)
Minimum temperature yesterday: 46 °F (at 3:00 AM)
Average temperature yesterday: 53 °F

Past Weeks' High & Low Weather Summary

 TemperatureHumidityPressure
High67 °F (Aug 20, 4:00 PM)99% (Aug 20, 5:00 AM)30.15 "Hg (Aug 20, 5:00 AM)
Low46 °F (Aug 25, 6:00 AM)51% (Aug 31, 7:00 PM)29.38 "Hg (Aug 26, 6:00 AM)
Average57 °F85%29.85 "Hg
* Reported Aug 18 10:00 AM — Sep 2 10:00 AM, Bangor, Weather by CustomWeather, © 2015

Note: Actual official high and low records may vary slightly from our data, if they occured in-between our weather recording intervals... More about our weather records

Advertising

Bangor weather history for previous 24 hours

 ConditionsComfort  
Time TempWeatherWind HumidityBarometerVisibility
10:00 AM
Wed, Sep 2
53 °FCool.9 mph88%30.11 "Hg25 mi
9:00 AM53 °FCool.8 mph83%30.11 "Hg31 mi
8:00 AM52 °FCool.9 mph83%30.11 "Hg19 mi
7:00 AM51 °FCool.9 mph93%30.11 "Hg9 mi
6:00 AM51 °FCool.6 mph88%30.11 "Hg14 mi
3:00 AM51 °FCool.7 mph84%30.13 "Hg7 mi
2:00 AM52 °FCool.3 mph80%30.14 "Hg18 mi
1:00 AM52 °FCool.6 mph77%30.14 "Hg31 mi
12:00 AM52 °FCool.5 mph78%30.15 "Hg12 mi
11:00 PM
Tue, Sep 1
53 °FCool.5 mph76%30.15 "Hg19 mi
9:00 PM53 °FCool.9 mph80%30.14 "Hg28 mi
8:00 PM53 °FCool.6 mph83%30.14 "Hg31 mi
7:00 PM54 °FCool.8 mph72%30.14 "Hg28 mi
6:00 PM54 °FCool.12 mph71%30.13 "Hg31 mi
5:00 PM56 °FCool.6 mph71%30.13 "Hg25 mi
4:00 PM56 °FCool.14 mph70%30.13 "Hg28 mi
3:00 PM56 °FCool.8 mph79%30.14 "Hg4 mi
2:00 PM58 °FCool.8 mph70%30.13 "Hg31 mi
1:00 PM56 °FCool.10 mph78%30.14 "Hg13 mi
12:00 PM57 °FCool.7 mph72%30.13 "Hg12 mi
Weather by CustomWeather, © 2015

See weather overviewHow to use our weather pages